KLM1301 EHAM-EKBI

Flight info

Callsign KLM1301
Flight time 0h 48m
Altitude 31000
Route ANDIK N873 REXMI DCT MIKRO DCT GELBA
Aircraft A21N/M-SDE2E3FGHIRWXY/LB1

Departure

Time 2026-05-07 09:44
Airport Amsterdam Airport Schiphol (EHAM)

Arrival

Time 2026-05-07 10:32
Airport Billund Airport (EKBI)
Time Latitude Longitude Altitude Speed Heading
2026-05-07 09:15 52.30709 4.77155 2 ft 0 kts
2026-05-07 09:29 52.30697 4.77156 2 ft 4 kts 18°
2026-05-07 09:29 52.30678 4.77144 2 ft 4 kts
2026-05-07 09:29 52.30663 4.77157 2 ft 4 kts 306°
2026-05-07 09:30 52.30655 4.77178 2 ft 1 kts 302°
2026-05-07 09:35 52.30655 4.77134 2 ft 0 kts 259°
2026-05-07 09:36 52.30652 4.77101 2 ft 10 kts 267°
2026-05-07 09:36 52.30655 4.76935 2 ft 15 kts 261°
2026-05-07 09:36 52.30580 4.76897 2 ft 14 kts 153°
2026-05-07 09:36 52.30496 4.76964 2 ft 13 kts 178°
2026-05-07 09:37 52.30447 4.76912 2 ft 0 kts 234°
2026-05-07 09:37 52.30445 4.76908 2 ft 0 kts 234°
2026-05-07 09:37 52.30442 4.76901 2 ft 1 kts 234°
2026-05-07 09:37 52.30440 4.76897 2 ft 0 kts 235°
2026-05-07 09:38 52.30439 4.76894 2 ft 1 kts 235°
2026-05-07 09:38 52.30419 4.76846 3 ft 15 kts 236°
2026-05-07 09:38 52.30364 4.76700 2 ft 15 kts 238°
2026-05-07 09:38 52.30306 4.76550 2 ft 16 kts 238°
2026-05-07 09:39 52.30246 4.76392 2 ft 18 kts 238°
2026-05-07 09:39 52.30173 4.76202 2 ft 21 kts 238°
2026-05-07 09:39 52.30118 4.76057 2 ft 23 kts 238°
2026-05-07 09:39 52.30030 4.75824 2 ft 26 kts 238°
2026-05-07 09:40 52.29930 4.75567 2 ft 28 kts 238°
2026-05-07 09:40 52.29835 4.75292 2 ft 27 kts 265°
2026-05-07 09:40 52.29926 4.75041 2 ft 25 kts 312°
2026-05-07 09:40 52.30018 4.74872 2 ft 20 kts 311°
2026-05-07 09:41 52.30112 4.74701 9 ft 19 kts 312°
2026-05-07 09:41 52.30195 4.74548 13 ft 19 kts 310°
2026-05-07 09:41 52.30276 4.74394 13 ft 12 kts 311°
2026-05-07 09:41 52.30356 4.74239 2 ft 21 kts 299°
2026-05-07 09:42 52.30314 4.74027 2 ft 22 kts 218°
2026-05-07 09:42 52.30195 4.73862 1 ft 22 kts 250°
2026-05-07 09:42 52.30238 4.73742 0 ft 0 kts
2026-05-07 09:43 52.30257 4.73743 -1 ft 18 kts
2026-05-07 09:43 52.30659 4.73780 1 ft 97 kts
2026-05-07 09:43 52.31602 4.73860 2 ft 171 kts
2026-05-07 09:43 52.32874 4.73990 496 ft 188 kts
2026-05-07 09:44 52.34120 4.74363 1562 ft 177 kts 21°
2026-05-07 09:44 52.35285 4.75132 2398 ft 188 kts 23°
2026-05-07 09:44 52.36596 4.76038 2647 ft 222 kts 23°
2026-05-07 09:44 52.38025 4.77343 3137 ft 245 kts 39°
2026-05-07 09:45 52.39293 4.79257 4027 ft 251 kts 44°
2026-05-07 09:45 52.40515 4.81299 4940 ft 257 kts 45°
2026-05-07 09:45 52.41772 4.83418 5653 ft 262 kts 45°
2026-05-07 09:45 52.43194 4.85315 6015 ft 266 kts 28°
2026-05-07 09:46 52.44951 4.86189 6075 ft 266 kts
2026-05-07 09:46 52.46804 4.86183 6111 ft 268 kts 356°
2026-05-07 09:46 52.48680 4.85980 6617 ft 272 kts 355°
2026-05-07 09:46 52.50579 4.85785 7530 ft 274 kts 359°
2026-05-07 09:47 52.52479 4.86150 8460 ft 278 kts 15°
2026-05-07 09:47 52.54217 4.87554 9367 ft 283 kts 38°
2026-05-07 09:47 52.55629 4.89832 10241 ft 288 kts 48°
2026-05-07 09:47 52.56964 4.92428 10712 ft 309 kts 50°
2026-05-07 09:48 52.58370 4.95275 11028 ft 333 kts 51°
2026-05-07 09:48 52.59873 4.98335 11355 ft 354 kts 50°
2026-05-07 09:48 52.61450 5.01543 11930 ft 366 kts 50°
2026-05-07 09:48 52.63068 5.04832 12679 ft 372 kts 50°
2026-05-07 09:49 52.64708 5.08168 13534 ft 377 kts 50°
2026-05-07 09:49 52.66369 5.11552 14306 ft 381 kts 50°
2026-05-07 09:49 52.68050 5.14979 15048 ft 385 kts 50°
2026-05-07 09:49 52.69741 5.18432 15740 ft 391 kts 50°
2026-05-07 09:50 52.71443 5.21911 16425 ft 395 kts 51°
2026-05-07 09:50 52.73198 5.25503 17129 ft 400 kts 50°
2026-05-07 09:50 52.74945 5.29116 17775 ft 404 kts 51°
2026-05-07 09:50 52.76672 5.32737 18435 ft 408 kts 51°
2026-05-07 09:51 52.78434 5.36460 18974 ft 413 kts 52°
2026-05-07 09:51 52.80202 5.40216 19593 ft 415 kts 51°
2026-05-07 09:51 52.81976 5.43996 20159 ft 418 kts 52°
2026-05-07 09:51 52.83768 5.47818 20775 ft 420 kts 52°
2026-05-07 09:52 52.85577 5.51677 21320 ft 424 kts 51°
2026-05-07 09:52 52.87392 5.55552 21920 ft 427 kts 52°
2026-05-07 09:52 52.89219 5.59457 22414 ft 431 kts 52°
2026-05-07 09:52 52.91061 5.63397 22992 ft 434 kts 52°
2026-05-07 09:53 52.92913 5.67366 23488 ft 437 kts 52°
2026-05-07 09:53 52.94752 5.71312 23937 ft 439 kts 52°
2026-05-07 09:53 52.96628 5.75345 24382 ft 442 kts 52°
2026-05-07 09:53 52.98507 5.79390 24834 ft 443 kts 52°
2026-05-07 09:54 53.00392 5.83456 25261 ft 445 kts 52°
2026-05-07 09:54 53.02284 5.87542 25681 ft 447 kts 52°
2026-05-07 09:54 53.04179 5.91641 26086 ft 449 kts 52°
2026-05-07 09:54 53.06082 5.95765 26482 ft 450 kts 52°
2026-05-07 09:55 53.07991 5.99909 26875 ft 452 kts 52°
2026-05-07 09:55 53.09906 6.04072 27250 ft 454 kts 52°
2026-05-07 09:55 53.11815 6.08231 27922 ft 447 kts 52°
2026-05-07 09:55 53.13689 6.12321 28586 ft 443 kts 52°
2026-05-07 09:56 53.15557 6.16404 28942 ft 445 kts 52°
2026-05-07 09:56 53.17440 6.20525 29211 ft 448 kts 51°
2026-05-07 09:56 53.19320 6.24648 29713 ft 445 kts 52°
2026-05-07 09:56 53.21194 6.28764 30180 ft 444 kts 52°
2026-05-07 09:57 53.23057 6.32863 30579 ft 442 kts 52°
2026-05-07 09:57 53.24897 6.36917 30880 ft 442 kts 52°
2026-05-07 09:57 53.26762 6.41033 31035 ft 444 kts 52°
2026-05-07 09:58 53.30475 6.49245 31058 ft 443 kts 52°
2026-05-07 09:58 53.34230 6.57418 31059 ft 442 kts 48°
2026-05-07 09:59 53.38582 6.64685 31055 ft 442 kts 43°
2026-05-07 09:59 53.43090 6.71682 31061 ft 442 kts 42°
2026-05-07 10:00 53.47682 6.78716 31066 ft 449 kts 41°
2026-05-07 10:00 53.52293 6.85816 31059 ft 450 kts 42°
2026-05-07 10:01 53.56897 6.92898 31063 ft 446 kts 41°
2026-05-07 10:01 53.61590 6.99660 31058 ft 443 kts 39°
2026-05-07 10:02 53.66317 7.06303 31065 ft 443 kts 39°
2026-05-07 10:02 53.71036 7.12974 31067 ft 443 kts 39°
2026-05-07 10:03 53.75739 7.19689 31083 ft 443 kts 39°
2026-05-07 10:03 53.80422 7.26450 31071 ft 441 kts 40°
2026-05-07 10:04 53.85158 7.33027 31076 ft 439 kts 33°
2026-05-07 10:04 53.90582 7.37750 31073 ft 440 kts 22°
2026-05-07 10:05 53.96360 7.41151 31089 ft 440 kts 12°
2026-05-07 10:05 54.02363 7.43229 31093 ft 440 kts 10°
2026-05-07 10:06 54.08349 7.45082 31091 ft 439 kts 10°
2026-05-07 10:06 54.14366 7.46941 31085 ft 439 kts 10°
2026-05-07 10:07 54.20388 7.48838 31084 ft 439 kts 10°
2026-05-07 10:07 54.26400 7.50751 31094 ft 439 kts 10°
2026-05-07 10:08 54.32395 7.52668 31097 ft 437 kts 10°
2026-05-07 10:08 54.38375 7.54585 31092 ft 437 kts 10°
2026-05-07 10:09 54.44356 7.56507 31092 ft 437 kts 10°
2026-05-07 10:09 54.50333 7.58433 31097 ft 437 kts 10°
2026-05-07 10:10 54.56310 7.60365 31098 ft 437 kts 10°
2026-05-07 10:10 54.62249 7.62290 31102 ft 437 kts 10°
2026-05-07 10:11 54.68220 7.64231 31035 ft 437 kts 10°
2026-05-07 10:11 54.71214 7.65206 30786 ft 438 kts 10°
2026-05-07 10:11 54.74216 7.66183 30539 ft 439 kts 10°
2026-05-07 10:11 54.77216 7.67161 30295 ft 440 kts 10°
2026-05-07 10:12 54.80229 7.68145 30027 ft 441 kts 10°
2026-05-07 10:12 54.83246 7.69130 29730 ft 442 kts 10°
2026-05-07 10:12 54.86266 7.70119 29448 ft 443 kts 10°
2026-05-07 10:12 54.89302 7.71114 29169 ft 444 kts 10°
2026-05-07 10:13 54.92344 7.72113 28881 ft 445 kts 10°
2026-05-07 10:13 54.95393 7.73116 28597 ft 446 kts 10°
2026-05-07 10:13 54.98438 7.74224 28319 ft 448 kts 15°
2026-05-07 10:13 55.01335 7.76239 28049 ft 450 kts 25°
2026-05-07 10:14 55.04130 7.78704 27791 ft 452 kts 26°
2026-05-07 10:14 55.06898 7.81357 27522 ft 455 kts 28°
2026-05-07 10:14 55.09651 7.84119 27255 ft 457 kts 29°
2026-05-07 10:14 55.12394 7.86923 26992 ft 458 kts 29°
2026-05-07 10:15 55.15146 7.89749 26728 ft 459 kts 29°
2026-05-07 10:15 55.17896 7.92568 26371 ft 457 kts 29°
2026-05-07 10:15 55.20586 7.95538 25444 ft 458 kts 35°
2026-05-07 10:15 55.23004 7.99170 24574 ft 459 kts 45°
2026-05-07 10:16 55.25003 8.03523 23751 ft 459 kts 57°
2026-05-07 10:16 55.26566 8.08394 22798 ft 457 kts 62°
2026-05-07 10:16 55.27977 8.13379 21858 ft 456 kts 63°
2026-05-07 10:16 55.29352 8.18372 20940 ft 453 kts 64°
2026-05-07 10:17 55.30713 8.23342 20067 ft 450 kts 64°
2026-05-07 10:17 55.32057 8.28259 19324 ft 444 kts 64°
2026-05-07 10:17 55.33383 8.33115 18599 ft 438 kts 64°
2026-05-07 10:17 55.34674 8.37848 17825 ft 432 kts 64°
2026-05-07 10:18 55.35965 8.42590 17016 ft 427 kts 64°
2026-05-07 10:18 55.37238 8.47272 16242 ft 421 kts 64°
2026-05-07 10:18 55.38495 8.51904 15471 ft 415 kts 64°
2026-05-07 10:18 55.39727 8.56456 14732 ft 410 kts 64°
2026-05-07 10:19 55.40941 8.60949 14054 ft 403 kts 64°
2026-05-07 10:19 55.42130 8.65356 13426 ft 394 kts 64°
2026-05-07 10:19 55.43289 8.69662 12806 ft 385 kts 64°
2026-05-07 10:19 55.44042 8.72466 12433 ft 379 kts 64°
2026-05-07 10:20 55.45155 8.76611 11872 ft 371 kts 64°
2026-05-07 10:20 55.46608 8.82038 11105 ft 361 kts 64°
2026-05-07 10:20 55.47314 8.84679 10755 ft 358 kts 64°
2026-05-07 10:20 55.48346 8.88549 10629 ft 339 kts 64°
2026-05-07 10:21 55.49319 8.92204 10554 ft 319 kts 64°
2026-05-07 10:21 55.50239 8.95660 10436 ft 303 kts 64°
2026-05-07 10:21 55.51115 8.98961 10280 ft 290 kts 64°
2026-05-07 10:21 55.51959 9.02142 9964 ft 284 kts 64°
2026-05-07 10:22 55.52791 9.05282 9556 ft 281 kts 64°
2026-05-07 10:22 55.53610 9.08376 9160 ft 276 kts 64°
2026-05-07 10:22 55.54407 9.11391 8771 ft 272 kts 64°
2026-05-07 10:22 55.55200 9.14397 8367 ft 268 kts 64°
2026-05-07 10:23 55.55972 9.17327 7929 ft 260 kts 64°
2026-05-07 10:23 55.56733 9.20217 7560 ft 257 kts 64°
2026-05-07 10:23 55.57475 9.23036 7209 ft 250 kts 64°
2026-05-07 10:23 55.58199 9.25796 6840 ft 245 kts 64°
2026-05-07 10:24 55.58915 9.28527 6470 ft 245 kts 64°
2026-05-07 10:24 55.59630 9.31255 6083 ft 244 kts 64°
2026-05-07 10:24 55.60337 9.33955 5677 ft 242 kts 64°
2026-05-07 10:24 55.61047 9.36673 5288 ft 242 kts 65°
2026-05-07 10:25 55.61750 9.39368 4880 ft 240 kts 65°
2026-05-07 10:25 55.62447 9.42041 4473 ft 238 kts 65°
2026-05-07 10:25 55.63138 9.44696 4093 ft 237 kts 65°
2026-05-07 10:25 55.63828 9.47349 3713 ft 237 kts 65°
2026-05-07 10:26 55.64513 9.49986 3337 ft 235 kts 65°
2026-05-07 10:26 55.65282 9.52522 3020 ft 233 kts 57°
2026-05-07 10:26 55.66288 9.54767 2968 ft 234 kts 39°
2026-05-07 10:26 55.67736 9.55967 2969 ft 231 kts
2026-05-07 10:27 55.69306 9.55638 2976 ft 228 kts 341°
2026-05-07 10:27 55.70793 9.54643 2971 ft 229 kts 335°
2026-05-07 10:27 55.72257 9.53525 2965 ft 229 kts 334°
2026-05-07 10:27 55.73617 9.52081 2965 ft 227 kts 316°
2026-05-07 10:28 55.74457 9.49800 2971 ft 224 kts 290°
2026-05-07 10:28 55.74865 9.47138 2915 ft 223 kts 278°
2026-05-07 10:28 55.74939 9.44388 2484 ft 223 kts 265°
2026-05-07 10:28 55.74836 9.41709 2313 ft 211 kts 265°
2026-05-07 10:29 55.74754 9.39208 2200 ft 195 kts 265°
2026-05-07 10:29 55.74690 9.36889 2051 ft 182 kts 265°
2026-05-07 10:29 55.74634 9.34753 2007 ft 162 kts 265°
2026-05-07 10:30 55.74526 9.31204 1821 ft 139 kts 265°
2026-05-07 10:30 55.74472 9.29487 1617 ft 139 kts 266°
2026-05-07 10:30 55.74419 9.27779 1421 ft 138 kts 266°
2026-05-07 10:30 55.74367 9.26076 1213 ft 137 kts 265°
2026-05-07 10:31 55.74314 9.24381 1028 ft 139 kts 265°
2026-05-07 10:31 55.74262 9.22667 828 ft 139 kts 266°
2026-05-07 10:31 55.74209 9.20945 642 ft 140 kts 266°
2026-05-07 10:31 55.74156 9.19220 432 ft 140 kts 266°
2026-05-07 10:32 55.74103 9.17495 264 ft 139 kts 266°
2026-05-07 10:32 55.74065 9.16039 240 ft 83 kts 267°
2026-05-07 10:32 55.74042 9.15308 234 ft 48 kts 267°
2026-05-07 10:32 55.73941 9.14814 231 ft 37 kts 241°
2026-05-07 10:33 55.73863 9.14419 227 ft 16 kts 257°
2026-05-07 10:33 55.73857 9.14372 228 ft 4 kts 258°
2026-05-07 10:33 55.73843 9.14253 226 ft 16 kts 257°
2026-05-07 10:33 55.74534 9.14812 232 ft 0 kts 356°
2026-05-07 10:34 55.74544 9.15084 232 ft 0 kts 359°